When you browse on this site, cookies collect data to enhance your experience and personalize the content and advertising you see.
Visit our Privacy Policy to learn more. By continuing to use the site, you agree to this use of cookies and data.
  • In Romania
  • List of Countries
  • For 7 days
  • Water Temperature
  • Satellite Maps
  • Weather Map
  • Weather Widgets
  • user-avatar
    Login

    Hourly Weather Solden

    Today, 19 April, Friday

    Time Temperature Precipitation Wind Pressure Humidity
    00:00 -3°C° 0 mm 0 mps 586 mmHg 93%
    01:00 -3°C° 0 mm 0 mps 586 mmHg 93%
    02:00 -2°C° 0 mm 1 mps 586 mmHg 92%
    03:00 -3°C° 0 mm 1 mps 586 mmHg 91%
    04:00 -3°C° 0 mm 1 mps 586 mmHg 89%
    05:00 -2°C° 0 mm 1 mps 586 mmHg 86%
    06:00 -1°C° 0 mm 1 mps 587 mmHg 83%
    07:00 -1°C° 0 mm 1 mps 588 mmHg 80%
    08:00 +1°C° 0 mm 1 mps 588 mmHg 74%
    09:00 +3°C° 0 mm 1 mps 589 mmHg 69%
    10:00 +5°C° 0 mm 1 mps 590 mmHg 64%
    11:00 +6°C° 0 mm 1 mps 590 mmHg 60%
    12:00 +7°C° 0 mm 1 mps 591 mmHg 57%
    13:00 +8°C° 0 mm 1 mps 591 mmHg 54%
    14:00 +8°C° 0 mm 1 mps 591 mmHg 53%
    15:00 +7°C° 0 mm 1 mps 591 mmHg 53%
    16:00 +7°C° 0 mm 1 mps 590 mmHg 52%
    17:00 +5°C° 0 mm 1 mps 589 mmHg 57%
    18:00 +3°C° 0 mm 1 mps 588 mmHg 62%
    19:00 -1°C° 0 mm 0 mps 587 mmHg 68%
    20:00 -2°C° 0 mm 0 mps 587 mmHg 69%
    21:00 -1°C° 0 mm 1 mps 587 mmHg 70%
    22:00 -2°C° 0 mm 1 mps 587 mmHg 71%
    23:00 -2°C° 0 mm 1 mps 587 mmHg 71%

    Tomorrow, 20 April, Saturday

    Time Temperature Precipitation Wind Pressure Humidity
    00:00 -2°C° 0 mm 1 mps 587 mmHg 71%
    01:00 -3°C° 0 mm 1 mps 587 mmHg 71%
    02:00 -3°C° 0 mm 1 mps 587 mmHg 70%
    03:00 -3°C° 0 mm 1 mps 586 mmHg 69%
    04:00 -3°C° 0 mm 1 mps 586 mmHg 68%
    05:00 -2°C° 0 mm 1 mps 587 mmHg 65%
    06:00 -1°C° 0 mm 1 mps 587 mmHg 61%
    07:00 0°C° 0 mm 1 mps 588 mmHg 58%
    08:00 +3°C° 0 mm 1 mps 589 mmHg 53%
    09:00 +5°C° 0 mm 1 mps 589 mmHg 48%
    10:00 +7°C° 0 mm 1 mps 590 mmHg 43%
    11:00 +8°C° 0 mm 1 mps 591 mmHg 41%
    12:00 +9°C° 0 mm 1 mps 591 mmHg 40%
    13:00 +10°C° 0 mm 1 mps 591 mmHg 39%
    14:00 +9°C° 0 mm 1 mps 591 mmHg 39%
    15:00 +9°C° 0 mm 1 mps 590 mmHg 40%
    16:00 +9°C° 0 mm 1 mps 590 mmHg 40%
    17:00 +6°C° 0 mm 1 mps 589 mmHg 47%
    18:00 +4°C° 0 mm 1 mps 587 mmHg 54%
    19:00 0°C° 0 mm 0 mps 586 mmHg 61%
    20:00 +1°C° 0 mm 1 mps 586 mmHg 63%
    21:00 0°C° 0 mm 1 mps 586 mmHg 64%
    22:00 -1°C° 0 mm 1 mps 585 mmHg 66%
    23:00 -1°C° 0 mm 1 mps 585 mmHg 68%

    Day after tomorrow, 21 April, Sunday

    Time Temperature Precipitation Wind Pressure Humidity
    00:00 -1°C° 0 mm 1 mps 585 mmHg 69%
    01:00 -2°C° 0 mm 1 mps 585 mmHg 71%
    02:00 -2°C° 0 mm 1 mps 585 mmHg 71%
    03:00 -2°C° 0 mm 1 mps 584 mmHg 72%
    04:00 -2°C° 0 mm 1 mps 584 mmHg 72%
    05:00 -1°C° 0 mm 1 mps 584 mmHg 67%
    06:00 0°C° 0 mm 1 mps 585 mmHg 62%
    07:00 +1°C° 0 mm 1 mps 585 mmHg 57%
    08:00 +4°C° 0 mm 1 mps 586 mmHg 49%
    09:00 +6°C° 0 mm 1 mps 587 mmHg 42%
    10:00 +8°C° 0 mm 1 mps 587 mmHg 34%
    11:00 +9°C° 0 mm 1 mps 587 mmHg 33%
    12:00 +8°C° 0 mm 2 mps 587 mmHg 31%
    13:00 +9°C° 0 mm 2 mps 587 mmHg 29%
    14:00 +9°C° 0 mm 2 mps 587 mmHg 31%
    15:00 +8°C° 0 mm 2 mps 586 mmHg 33%
    16:00 +8°C° 0 mm 2 mps 586 mmHg 35%
    17:00 +6°C° 0 mm 2 mps 584 mmHg 45%
    18:00 +4°C° 0 mm 1 mps 583 mmHg 56%
    19:00 +2°C° 0 mm 1 mps 582 mmHg 66%
    20:00 +1°C° 0 mm 1 mps 581 mmHg 71%
    21:00 0°C° 0 mm 1 mps 581 mmHg 76%
    22:00 -1°C° 0 mm 1 mps 581 mmHg 80%
    23:00 -1°C° 0 mm 1 mps 581 mmHg 83%

    22 April, Monday

    Time Temperature Precipitation Wind Pressure Humidity
    00:00 -1°C° 0 mm 1 mps 581 mmHg 85%
    01:00 -1°C° 0 mm 1 mps 580 mmHg 87%
    02:00 -2°C° 0 mm 1 mps 580 mmHg 86%
    03:00 -2°C° 0 mm 1 mps 579 mmHg 85%
    04:00 -2°C° 0 mm 1 mps 579 mmHg 84%
    05:00 -1°C° 0 mm 1 mps 579 mmHg 79%
    06:00 0°C° 0 mm 1 mps 580 mmHg 74%
    07:00 +1°C° 0 mm 0 mps 580 mmHg 69%
    08:00 +3°C° 0 mm 1 mps 580 mmHg 63%
    09:00 +4°C° 0 mm 2 mps 581 mmHg 58%
    10:00 +6°C° 0 mm 2 mps 581 mmHg 52%
    11:00 +6°C° 0 mm 2 mps 581 mmHg 49%
    12:00 +6°C° 0 mm 2 mps 580 mmHg 45%
    13:00 +7°C° 0 mm 3 mps 580 mmHg 42%
    14:00 +7°C° 0 mm 3 mps 580 mmHg 43%
    15:00 +7°C° 0 mm 2 mps 579 mmHg 44%
    16:00 +7°C° 0 mm 2 mps 578 mmHg 45%
    17:00 +5°C° 0 mm 2 mps 577 mmHg 55%
    18:00 +3°C° 0 mm 2 mps 576 mmHg 65%
    19:00 +1°C° 0 mm 2 mps 575 mmHg 74%
    20:00 -1°C° 0 mm 2 mps 575 mmHg 80%
    21:00 +1°C° 0 mm 1 mps 575 mmHg 86%
    22:00 0°C° 0 mm 1 mps 574 mmHg 91%
    23:00 0°C° 0.1 mm 1 mps 574 mmHg 90%

    23 April, Tuesday

    Time Temperature Precipitation Wind Pressure Humidity
    00:00 0°C° 0.1 mm 1 mps 573 mmHg 89%
    01:00 0°C° 0.1 mm 1 mps 573 mmHg 88%
    02:00 0°C° 0.2 mm 1 mps 573 mmHg 87%
    03:00 0°C° 0.2 mm 1 mps 572 mmHg 86%
    04:00 0°C° 0.2 mm 1 mps 572 mmHg 86%
    05:00 0°C° 0.3 mm 1 mps 572 mmHg 85%
    06:00 +1°C° 0.3 mm 1 mps 572 mmHg 83%
    07:00 +1°C° 0.3 mm 1 mps 572 mmHg 82%
    08:00 +2°C° 0.2 mm 1 mps 573 mmHg 77%
    09:00 +4°C° 0.2 mm 1 mps 574 mmHg 73%
    10:00 +4°C° 0.2 mm 2 mps 574 mmHg 68%
    11:00 +4°C° 0.3 mm 2 mps 575 mmHg 68%
    12:00 +5°C° 0.3 mm 2 mps 575 mmHg 68%
    13:00 +5°C° 0.3 mm 2 mps 575 mmHg 68%
    14:00 +5°C° 0.5 mm 2 mps 575 mmHg 69%
    15:00 +5°C° 0.5 mm 2 mps 575 mmHg 71%
    16:00 +5°C° 0.5 mm 2 mps 576 mmHg 72%
    17:00 +5°C° 0.4 mm 1 mps 575 mmHg 78%
    18:00 +4°C° 0.4 mm 1 mps 575 mmHg 83%
    19:00 +3°C° 0.4 mm 1 mps 575 mmHg 89%
    20:00 +2°C° 0.3 mm 1 mps 576 mmHg 91%
    21:00 +2°C° 0.3 mm 1 mps 576 mmHg 93%
    22:00 +1°C° 0.3 mm 1 mps 577 mmHg 95%
    23:00 +1°C° 0.2 mm 1 mps 577 mmHg 95%

    24 April, Wednesday

    Time Temperature Precipitation Wind Pressure Humidity
    00:00 +1°C° 0.2 mm 1 mps 577 mmHg 95%
    01:00 +1°C° 0.2 mm 1 mps 578 mmHg 95%
    02:00 +1°C° 0.1 mm 1 mps 578 mmHg 95%
    03:00 +1°C° 0.1 mm 1 mps 578 mmHg 95%
    04:00 +1°C° 0.1 mm 1 mps 578 mmHg 95%
    05:00 +2°C° 0 mm 1 mps 579 mmHg 92%
    06:00 +2°C° 0 mm 1 mps 579 mmHg 90%
    07:00 +2°C° 0 mm 1 mps 580 mmHg 87%
    08:00 +4°C° 0 mm 1 mps 581 mmHg 81%
    09:00 +5°C° 0 mm 1 mps 582 mmHg 75%
    10:00 +5°C° 0 mm 2 mps 582 mmHg 69%
    11:00 +6°C° 0.1 mm 2 mps 583 mmHg 68%
    12:00 +6°C° 0.1 mm 2 mps 583 mmHg 67%
    13:00 +7°C° 0.1 mm 2 mps 583 mmHg 66%
    14:00 +7°C° 0 mm 2 mps 583 mmHg 66%
    15:00 +7°C° 0 mm 2 mps 583 mmHg 66%
    16:00 +7°C° 0 mm 2 mps 583 mmHg 66%
    17:00 +6°C° 0 mm 2 mps 583 mmHg 73%
    18:00 +5°C° 0 mm 1 mps 582 mmHg 81%
    19:00 +4°C° 0 mm 1 mps 582 mmHg 88%
    20:00 +3°C° 0 mm 1 mps 582 mmHg 90%
    21:00 +3°C° 0 mm 1 mps 582 mmHg 92%
    22:00 +2°C° 0 mm 1 mps 582 mmHg 94%
    23:00 +2°C° 0 mm 1 mps 582 mmHg 94%
    Show more